Tracking 31027 objects as of 19-Jul-2025
HD Live streaming from Space Station
objects crossing your sky now

MORDOVIA-IOT

Track MORDOVIA-IOT now!
10-day predictions


NORAD ID: 61765
Int'l Code: 2024-199AG
Perigee: 434.5 km
Apogee: 448.5 km
Inclination: 97.3 °
Period: 93.3 minutes
Semi major axis: 6812 km
RCS: Unknown
Launch date: November 4, 2024
Source: Commonwealth of Independent States (former USSR) (CIS)
Launch site: VOSTOCHNY COSMODROME (VOSTO)
Your satellite tracking list
KORSAT 7
Track 1 satellite(s)




NASA's NSSDC Master Catalog

Two Line Element Set (TLE):
1 61765U 24199AG  25199.87922194  .00032608  00000-0  71435-3 0  9990
2 61765  97.3482  70.2748 0010247  43.0582 317.1466 15.43986292 83091
Source of the keplerian elements: AFSPC